Showing default

HULIANWANG DIGUI-15, 62975

Orbit data source: Space-Track

HULIANWANG DIGUI-15, 62975 is a payload satellite owned by Zhongguo Xingwang (CN) in LEO that was launched on Tue, 11 Feb 2025 UTC via a CHANG ZHENG 8A launch vehicle from the Wenchang Satellite Launch Center (WSC). Payload-class satellites include a variety of spacecraft equipped with specific instruments for various scientific and technological missions. These include communications satellites like Starlink; space stations such as the ISS; scientific satellites like the Hubble; Earth observation satellites from companies like Planet Labs, Umbra, and HawkEye 360; GPS; miniature CubeSats for education and research; and military/defense satellites.

Loading next visibility...
Identifier
62975, 2025-030E
Orbit
LEO
Last TLE update
13 hours ago
Origin
Manufacturer
CAST
Mission
Operational Civil Communications
Bus & Motor
HWHD, Unknown motor
Mass
~800 kg wet, ~800 kg dry
Launch date (UTC)
2025-02-11 (5 months ago)
Launch vehicle
CHANG ZHENG 8A
Launch site
Wenchang Satellite Launch Center (WSC)
Object type
Payload
Rocket body
Debris
Shape & HBR
Box + 2 Pan, 10 m
Radar Cross Section
5.935 m², Large (>1 m²)

Expand to show TLE details & history

TLE from 13 hours ago
0 HULIANWANG DIGUI-15
1 62975U 25030E   25181.90581708 -.00000097  00000-0  58140-4 0  9993
2 62975  50.0039  55.6728 0000404 136.1053 223.9851 13.29332196 19131
Epoch: 2025-06-30T21:44Z
TLE epoch observation values (Epoch: 2025-06-30T21:44:22.595Z)
Latitude
-0.00005°
Longitude
170.3697°
Altitude
1,150.008 km
Speed
7.279 km/s
True Right ascension
03h 42m 41s
True Declination
0° 00' 00"
Sunlit
Object was in daylight at epoch
Visualization orbit readout
Latitude
8.57936°
Longitude
175.70799°
Altitude
1,149.269 km
Speed
7.28 km/s
Apparent Right ascension
06h 17m 25s
Apparent Declination
-18° 20' 23"
Sunlit
Object is in daylight
Visualization observer readout
Local Sidereal Time
22:03:59
Azimuth
83.268° E
Elevation
-37.03°
Doppler factor
1
Orbital elements
Apogee altitude
1,150.292 km
Perigee altitude
1,149.684 km
Semi-major axis
7,528.125 km
Eccentricity
0.00004
Inclination
50.0039°
RAAN
55.6728°
Arg. of periapsis
136.1053°
True anomaly
Unknown
Mean anomaly
223.9851°
Eccentric anomaly
Unknown
Mean motion
3.32287 °/min
Orbital period
108.34 mins
BSTAR
0.00005814
Loading maneuver chart data...
Loading SW <> Apogee altitude chart data...
Loading historical data...
Loading historical data...
Loading historical data...
Loading historical data...
Loading historical data...
Loading historical data...
Loading historical data...

HULIANWANG DIGUI-15 Visibility forecast

Observer location: undefined°, undefined°

Span
Click to sort rows by Start time (UTC) header in descending order
Start Az.
Max El. time (UTC)
Max El. Az.
Max El.
End time (UTC)
End Az.
13 mins2025-07-01 17:43:32.385Z205.847° SW2025-07-01 17:49:32.385Z138.498° SSE37.527°2025-07-01 17:56:32.385Z63.365° ENE
13 mins2025-07-01 19:37:32.385Z259.005° W2025-07-01 19:43:32.385Z342.427° N40.538°2025-07-01 19:50:32.385Z54.193° ENE
12 mins2025-07-01 21:32:32.385Z295.707° NW2025-07-01 21:38:32.385Z4.413° NNE31.485°2025-07-01 21:44:32.385Z63.358° ENE
12 mins2025-07-01 23:27:32.385Z310.046° NW2025-07-01 23:33:32.385Z32.073° NE38.067°2025-07-01 23:39:32.385Z95.286° ESE
12 mins2025-07-02 01:21:32.385Z296.638° NW2025-07-02 01:27:32.385Z202.73° SW41.155°2025-07-02 01:33:32.385Z144.159° SSE
5 mins2025-07-02 03:17:32.385Z255.686° W2025-07-02 03:19:32.385Z238.181° WSW13.851°2025-07-02 03:22:32.385Z212.559° SW
|